Overview Statistics Trail Chart Weather Telemetry Raw packets
 

This is the latest recevied weather packets stored in our database for station/object K3RUP-1. If no packets are shown the sender has not sent any weather packets the latest 10 day(s).

<< 68 69 70 71 72 73 74 >>
Time Temp. Humidity Pressure Rain* Wind** Luminosity Snow
1788206224 27.78° C 79% 1017.8 hPa 0 mm - 150 W/m² -
1788205920 27.78° C 78% 1017.7 hPa 0 mm - 149 W/m² -
1788205614 28.33° C 78% 1017.7 hPa 0 mm - 144 W/m² -
1788205310 28.33° C 78% 1017.9 hPa 0 mm - 159 W/m² -
1788205004 28.89° C 79% 1017.9 hPa 0 mm - 173 W/m² -
1788204700 28.33° C 79% 1017.9 hPa 0 mm - 206 W/m² -
1788204394 28.33° C 78% 1018 hPa 0 mm - 231 W/m² -
1788204090 28.33° C 78% 1017.9 hPa 0 mm - 229 W/m² -
1788203786 27.78° C 79% 1018.2 hPa 0 mm - 227 W/m² -
1788203481 27.78° C 80% 1018.4 hPa 0 mm - 227 W/m² -
1788203176 27.78° C 80% 1018.2 hPa 0 mm - 237 W/m² -
1788202875 27.78° C 80% 1018.4 hPa 0 mm - 231 W/m² -
1788202571 27.78° C 81% 1018.5 hPa 0 mm - 170 W/m² -
1788202267 27.78° C 81% 1018.3 hPa 0 mm - 154 W/m² -
1788201966 27.22° C 81% 1018.7 hPa 0 mm - 161 W/m² -
1788201662 27.22° C 81% 1018.6 hPa 0 mm - 160 W/m² -
1788201361 27.78° C 80% 1018.6 hPa 0 mm - 157 W/m² -
1788201055 27.78° C 80% 1018.7 hPa 0 mm - 170 W/m² -
1788200754 27.78° C 80% 1018.5 hPa 0 mm - 187 W/m² -
1788200450 27.78° C 79% 1018.5 hPa 0 mm - 226 W/m² -
1788200145 28.33° C 79% 1018.4 hPa 0 mm - 226 W/m² -
1788199845 28.33° C 78% 1018.6 hPa 0 mm - 222 W/m² -
1788199540 28.33° C 78% 1018.4 hPa 0 mm - 234 W/m² -
1788199235 28.33° C 78% 1018.7 hPa 0 mm - 234 W/m² -
1788198930 28.89° C 77% 1018.5 hPa 0 mm - 240 W/m² -

* Rain latest hour (hover to see other rain measurements)
** Current wind speed in m/s (hover to see current wind gust speed)